QPF
0.00 0.00 0.00 0.00 0.00 0.00 0.00 0.00 0.00 0.00 0.00 0.00 0.00 0.01 0.01 0.01 0.01 0.02 0.02 0.03 0.02 0.02 0.02 0.03 0.05 0.06 0.05 0.04 0.04 0.05 0.05 0.07 0.10 0.10 0.10 0.11 0.11 0.11 0.12 0.15 0.17 0.16 0.14 0.12
0.00 0.00 0.00 0.00 0.00 0.00 0.00 0.00 0.00 0.00 0.00 0.00 0.00 0.01 0.01 0.01 0.01 0.01 0.02 0.03 0.04 0.02 0.02 0.04 0.06 0.09 0.05 0.05 0.06 0.06 0.06 0.06 0.07 0.07 0.08 0.09 0.09 0.09 0.07 0.07 0.09 0.12 0.13 0.12
0.01 0.00 0.00 0.00 0.00 0.00 0.00 0.00 0.00 0.00 0.00 0.00 0.01 0.01 0.01 0.01 0.01 0.01 0.03 0.05 0.06 0.04 0.04 0.03 0.04 0.06 0.06 0.06 0.06 0.06 0.07 0.07 0.07 0.08 0.08 0.08 0.08 0.08 0.07 0.06 0.07 0.08 0.08 0.08
0.00 0.00 0.00 0.00 0.00 0.00 0.00 0.00 0.00 0.00 0.01 0.01 0.01 0.02 0.02 0.02 0.01 0.01 0.03 0.05 0.05 0.04 0.03 0.02 0.02 0.03 0.04 0.05 0.07 0.08 0.09 0.09 0.09 0.10 0.10 0.08 0.08 0.08 0.08 0.07 0.07 0.06 0.06 0.06
0.00 0.00 0.00 0.00 0.00 0.00 0.00 0.00 0.00 0.00 0.00 0.02 0.02 0.03 0.04 0.03 0.03 0.03 0.03 0.04 0.05 0.04 0.04 0.02 0.02 0.02 0.04 0.04 0.06 0.08 0.10 0.09 0.08 0.08 0.07 0.08 0.08 0.08 0.09 0.09 0.08 0.07 0.06 0.06
0.00 0.00 0.00 0.00 0.00 0.00 0.00 0.00 0.00 0.00 0.01 0.03 0.02 0.03 0.04 0.04 0.03 0.04 0.04 0.04 0.05 0.04 0.05 0.04 0.03 0.04 0.07 0.07 0.07 0.08 0.08 0.09 0.08 0.07 0.06 0.06 0.07 0.08 0.09 0.09 0.08 0.07 0.06 0.06
0.01 0.00 0.00 0.00 0.00 0.00 0.00 0.00 0.01 0.02 0.03 0.03 0.01 0.03 0.04 0.03 0.03 0.04 0.04 0.05 0.07 0.07 0.09 0.07 0.06 0.07 0.12 0.11 0.10 0.10 0.09 0.07 0.04 0.06 0.07 0.06 0.08 0.09 0.09 0.08 0.07 0.06 0.05 0.05
0.01 0.01 0.00 0.00 0.00 0.00 0.00 0.01 0.02 0.05 0.06 0.04 0.03 0.05 0.05 0.03 0.04 0.04 0.03 0.04 0.06 0.07 0.08 0.07 0.07 0.08 0.10 0.13 0.13 0.12 0.10 0.06 0.04 0.06 0.08 0.07 0.07 0.06 0.07 0.09 0.07 0.06 0.06 0.05
0.01 0.01 0.00 0.00 0.00 0.00 0.00 0.00 0.00 0.01 0.01 0.02 0.03 0.05 0.06 0.04 0.04 0.04 0.03 0.05 0.05 0.06 0.08 0.08 0.07 0.07 0.07 0.08 0.13 0.12 0.08 0.06 0.06 0.07 0.07 0.07 0.07 0.07 0.07 0.08 0.08 0.07 0.07 0.06
0.00 0.00 0.00 0.00 0.00 0.00 0.00 0.00 0.01 0.02 0.03 0.03 0.03 0.04 0.05 0.04 0.04 0.04 0.05 0.06 0.05 0.05 0.06 0.06 0.05 0.05 0.07 0.07 0.08 0.07 0.06 0.06 0.07 0.07 0.07 0.06 0.08 0.07 0.08 0.07 0.06 0.05 0.05 0.06
0.00 0.01 0.00 0.00 0.00 0.00 0.00 0.00 0.01 0.02 0.03 0.03 0.05 0.07 0.05 0.03 0.03 0.03 0.04 0.06 0.09 0.11 0.10 0.07 0.04 0.03 0.07 0.08 0.06 0.05 0.05 0.07 0.07 0.07 0.07 0.07 0.07 0.07 0.07 0.06 0.05 0.05 0.05 0.06
0.00 0.01 0.01 0.01 0.00 0.00 0.00 0.00 0.01 0.02 0.02 0.03 0.06 0.11 0.04 0.02 0.03 0.04 0.05 0.06 0.10 0.12 0.11 0.06 0.04 0.03 0.05 0.08 0.07 0.05 0.06 0.07 0.06 0.07 0.07 0.07 0.08 0.08 0.07 0.06 0.05 0.05 0.05 0.05
0.00 0.01 0.02 0.01 0.01 0.00 0.00 0.01 0.01 0.00 0.02 0.03 0.05 0.07 0.04 0.03 0.04 0.05 0.06 0.06 0.09 0.13 0.08 0.06 0.05 0.05 0.06 0.09 0.08 0.06 0.06 0.06 0.06 0.07 0.07 0.08 0.09 0.08 0.06 0.05 0.05 0.05 0.05 0.04
0.00 0.01 0.03 0.03 0.02 0.01 0.00 0.00 0.00 0.00 0.01 0.02 0.02 0.03 0.03 0.04 0.03 0.04 0.06 0.08 0.08 0.08 0.08 0.07 0.06 0.06 0.08 0.09 0.07 0.06 0.06 0.07 0.07 0.07 0.07 0.07 0.07 0.06 0.05 0.04 0.05 0.05 0.04 0.04
0.00 0.01 0.02 0.01 0.00 0.00 0.00 0.00 0.00 0.00 0.01 0.02 0.02 0.02 0.04 0.05 0.02 0.03 0.04 0.05 0.05 0.04 0.05 0.05 0.06 0.05 0.07 0.08 0.07 0.05 0.04 0.06 0.09 0.08 0.07 0.05 0.05 0.04 0.04 0.05 0.06 0.05 0.05 0.04
0.00 0.01 0.01 0.01 0.00 0.00 0.00 0.00 0.00 0.00 0.00 0.01 0.02 0.03 0.06 0.07 0.03 0.03 0.03 0.03 0.02 0.02 0.03 0.03 0.05 0.05 0.06 0.07 0.06 0.04 0.05 0.05 0.05 0.06 0.05 0.03 0.04 0.04 0.06 0.07 0.07 0.06 0.06 0.05
0.01 0.01 0.02 0.02 0.00 0.00 0.01 0.01 0.01 0.01 0.01 0.02 0.03 0.04 0.05 0.04 0.03 0.02 0.02 0.02 0.02 0.02 0.02 0.02 0.03 0.04 0.05 0.07 0.06 0.05 0.06 0.06 0.04 0.03 0.03 0.03 0.04 0.04 0.06 0.06 0.07 0.08 0.08 0.06
0.01 0.01 0.02 0.01 0.01 0.02 0.02 0.01 0.01 0.02 0.02 0.02 0.02 0.02 0.03 0.02 0.02 0.01 0.01 0.01 0.01 0.02 0.02 0.02 0.03 0.04 0.04 0.07 0.09 0.08 0.06 0.05 0.05 0.04 0.03 0.03 0.03 0.04 0.05 0.05 0.08 0.10 0.09 0.06
0.01 0.01 0.01 0.02 0.02 0.02 0.03 0.01 0.01 0.02 0.03 0.02 0.02 0.02 0.01 0.01 0.02 0.02 0.01 0.01 0.01 0.01 0.02 0.02 0.03 0.04 0.03 0.06 0.09 0.08 0.05 0.04 0.04 0.03 0.04 0.03 0.03 0.03 0.04 0.05 0.06 0.09 0.08 0.06
0.00 0.00 0.01 0.02 0.03 0.03 0.02 0.01 0.01 0.02 0.04 0.02 0.01 0.02 0.02 0.02 0.03 0.03 0.01 0.01 0.01 0.02 0.02 0.02 0.02 0.03 0.04 0.05 0.06 0.08 0.07 0.05 0.03 0.03 0.03 0.03 0.02 0.02 0.02 0.04 0.04 0.05 0.05 0.04
0.00 0.01 0.01 0.01 0.02 0.02 0.02 0.01 0.01 0.03 0.04 0.02 0.01 0.01 0.02 0.02 0.02 0.01 0.01 0.02 0.02 0.02 0.02 0.02 0.02 0.03 0.04 0.05 0.05 0.07 0.08 0.07 0.05 0.04 0.03 0.02 0.02 0.01 0.02 0.03 0.04 0.04 0.04 0.04
0.00 0.01 0.01 0.01 0.02 0.03 0.02 0.02 0.03 0.03 0.02 0.01 0.01 0.01 0.01 0.01 0.00 0.01 0.01 0.02 0.04 0.03 0.01 0.02 0.03 0.03 0.03 0.04 0.05 0.06 0.06 0.06 0.06 0.05 0.04 0.02 0.02 0.01 0.02 0.02 0.03 0.04 0.05 0.05
0.00 0.01 0.01 0.01 0.02 0.03 0.02 0.02 0.03 0.02 0.01 0.01 0.01 0.01 0.01 0.01 0.00 0.01 0.02 0.02 0.03 0.03 0.02 0.03 0.04 0.03 0.03 0.04 0.05 0.05 0.05 0.05 0.06 0.05 0.06 0.04 0.02 0.01 0.01 0.01 0.02 0.04 0.05 0.03
0.01 0.01 0.01 0.01 0.02 0.02 0.02 0.03 0.03 0.02 0.01 0.01 0.00 0.00 0.01 0.01 0.01 0.02 0.04 0.02 0.03 0.02 0.02 0.03 0.05 0.03 0.03 0.03 0.03 0.04 0.03 0.02 0.03 0.05 0.05 0.05 0.03 0.01 0.01 0.01 0.01 0.02 0.02 0.02
0.00 0.01 0.01 0.02 0.02 0.02 0.02 0.02 0.02 0.02 0.01 0.01 0.00 0.00 0.00 0.00 0.02 0.05 0.05 0.03 0.03 0.02 0.02 0.02 0.05 0.04 0.02 0.02 0.03 0.02 0.02 0.03 0.04 0.05 0.06 0.05 0.03 0.02 0.01 0.01 0.01 0.01 0.01 0.02
0.00 0.01 0.02 0.02 0.02 0.03 0.02 0.02 0.02 0.01 0.01 0.00 0.00 0.00 0.00 0.00 0.02 0.04 0.04 0.03 0.03 0.03 0.02 0.02 0.04 0.04 0.03 0.02 0.02 0.02 0.02 0.02 0.04 0.03 0.03 0.03 0.02 0.02 0.02 0.01 0.01 0.01 0.01 0.01
MSLP
1007.88 1008.29 1008.65 1008.97 1009.31 1009.71 1010.17 1010.71 1011.26 1011.77 1012.14 1012.31 1012.25 1011.95 1011.46 1010.86 1010.25 1009.75 1009.41 1009.27 1009.31 1009.49 1009.72 1009.94 1010.07 1010.11 1010.08 1010.03 1010.04 1010.17 1010.47 1010.95 1011.58 1012.30 1013.01 1013.63 1014.10 1014.39 1014.51 1014.50 1014.43 1014.37 1014.37 1014.47
1008.34 1008.62 1008.85 1009.09 1009.38 1009.78 1010.30 1010.93 1011.60 1012.23 1012.72 1012.99 1013.00 1012.74 1012.27 1011.67 1011.06 1010.54 1010.19 1010.05 1010.10 1010.28 1010.51 1010.72 1010.84 1010.86 1010.79 1010.70 1010.66 1010.74 1011.01 1011.46 1012.08 1012.79 1013.50 1014.13 1014.61 1014.90 1015.01 1014.99 1014.89 1014.79 1014.75 1014.80
1008.79 1008.90 1008.97 1009.07 1009.27 1009.63 1010.16 1010.85 1011.63 1012.39 1013.03 1013.46 1013.62 1013.49 1013.13 1012.62 1012.07 1011.60 1011.29 1011.16 1011.21 1011.37 1011.58 1011.74 1011.81 1011.77 1011.63 1011.46 1011.34 1011.35 1011.55 1011.94 1012.51 1013.18 1013.87 1014.49 1014.97 1015.27 1015.39 1015.37 1015.28 1015.18 1015.13 1015.17
1009.25 1009.17 1009.05 1008.99 1009.06 1009.35 1009.86 1010.60 1011.47 1012.37 1013.18 1013.79 1014.13 1014.19 1014.00 1013.63 1013.20 1012.82 1012.55 1012.43 1012.46 1012.59 1012.74 1012.84 1012.84 1012.71 1012.49 1012.24 1012.04 1011.96 1012.07 1012.39 1012.88 1013.50 1014.14 1014.74 1015.21 1015.52 1015.67 1015.68 1015.63 1015.56 1015.53 1015.58
1009.77 1009.49 1009.18 1008.95 1008.89 1009.09 1009.57 1010.32 1011.26 1012.29 1013.25 1014.05 1014.60 1014.86 1014.86 1014.65 1014.35 1014.04 1013.81 1013.70 1013.70 1013.77 1013.85 1013.87 1013.79 1013.59 1013.30 1012.98 1012.71 1012.56 1012.59 1012.83 1013.25 1013.80 1014.39 1014.95 1015.41 1015.72 1015.89 1015.95 1015.94 1015.92 1015.93 1016.01
1010.35 1009.91 1009.44 1009.05 1008.87 1008.98 1009.41 1010.16 1011.15 1012.27 1013.37 1014.34 1015.07 1015.51 1015.68 1015.62 1015.42 1015.18 1014.97 1014.84 1014.78 1014.78 1014.78 1014.73 1014.58 1014.33 1014.00 1013.64 1013.34 1013.15 1013.13 1013.30 1013.65 1014.13 1014.66 1015.17 1015.60 1015.92 1016.11 1016.20 1016.23 1016.25 1016.31 1016.41
1011.00 1010.43 1009.84 1009.35 1009.08 1009.11 1009.49 1010.23 1011.24 1012.42 1013.61 1014.69 1015.56 1016.15 1016.45 1016.50 1016.37 1016.16 1015.95 1015.77 1015.65 1015.56 1015.49 1015.37 1015.18 1014.91 1014.58 1014.23 1013.93 1013.73 1013.70 1013.83 1014.12 1014.53 1015.00 1015.46 1015.85 1016.15 1016.34 1016.45 1016.51 1016.56 1016.63 1016.75
1011.65 1011.03 1010.39 1009.84 1009.51 1009.49 1009.84 1010.56 1011.57 1012.76 1014.00 1015.15 1016.10 1016.77 1017.15 1017.26 1017.17 1016.97 1016.72 1016.48 1016.28 1016.13 1015.98 1015.82 1015.62 1015.36 1015.06 1014.76 1014.50 1014.33 1014.30 1014.41 1014.66 1015.01 1015.41 1015.81 1016.16 1016.42 1016.60 1016.70 1016.76 1016.81 1016.88 1016.99
1012.24 1011.63 1010.99 1010.45 1010.12 1010.10 1010.43 1011.12 1012.12 1013.30 1014.54 1015.70 1016.67 1017.38 1017.79 1017.92 1017.83 1017.60 1017.31 1017.01 1016.74 1016.52 1016.33 1016.15 1015.95 1015.73 1015.48 1015.25 1015.05 1014.93 1014.92 1015.03 1015.25 1015.55 1015.89 1016.22 1016.51 1016.73 1016.87 1016.94 1016.98 1017.01 1017.05 1017.11
1012.68 1012.14 1011.58 1011.11 1010.83 1010.84 1011.18 1011.86 1012.82 1013.97 1015.17 1016.31 1017.26 1017.95 1018.35 1018.47 1018.36 1018.10 1017.75 1017.40 1017.08 1016.81 1016.59 1016.40 1016.22 1016.05 1015.88 1015.71 1015.59 1015.52 1015.54 1015.65 1015.84 1016.09 1016.36 1016.63 1016.86 1017.02 1017.12 1017.16 1017.16 1017.15 1017.14 1017.15
1012.92 1012.50 1012.07 1011.71 1011.53 1011.61 1011.98 1012.67 1013.60 1014.70 1015.85 1016.92 1017.82 1018.46 1018.82 1018.91 1018.76 1018.46 1018.08 1017.69 1017.33 1017.03 1016.80 1016.62 1016.48 1016.36 1016.25 1016.16 1016.09 1016.07 1016.11 1016.21 1016.37 1016.57 1016.79 1017.00 1017.17 1017.28 1017.33 1017.33 1017.30 1017.24 1017.18 1017.14
1012.96 1012.70 1012.42 1012.22 1012.17 1012.34 1012.77 1013.47 1014.38 1015.42 1016.49 1017.49 1018.30 1018.88 1019.18 1019.22 1019.04 1018.71 1018.31 1017.89 1017.52 1017.22 1016.99 1016.83 1016.72 1016.65 1016.59 1016.55 1016.53 1016.53 1016.58 1016.67 1016.80 1016.96 1017.12 1017.28 1017.40 1017.47 1017.49 1017.46 1017.39 1017.31 1017.22 1017.13
1012.87 1012.77 1012.66 1012.62 1012.72 1013.00 1013.50 1014.22 1015.11 1016.09 1017.07 1017.96 1018.68 1019.17 1019.40 1019.39 1019.18 1018.83 1018.41 1018.00 1017.63 1017.33 1017.13 1016.99 1016.92 1016.89 1016.87 1016.86 1016.87 1016.89 1016.93 1017.00 1017.09 1017.21 1017.33 1017.44 1017.52 1017.57 1017.57 1017.53 1017.45 1017.35 1017.25 1017.15
1012.76 1012.79 1012.85 1012.97 1013.21 1013.60 1014.17 1014.90 1015.76 1016.67 1017.56 1018.33 1018.94 1019.32 1019.48 1019.40 1019.15 1018.79 1018.37 1017.97 1017.62 1017.35 1017.17 1017.07 1017.03 1017.03 1017.04 1017.06 1017.08 1017.10 1017.13 1017.18 1017.24 1017.32 1017.40 1017.48 1017.55 1017.58 1017.57 1017.54 1017.47 1017.38 1017.28 1017.17
1012.72 1012.88 1013.07 1013.33 1013.69 1014.18 1014.80 1015.54 1016.35 1017.17 1017.95 1018.60 1019.07 1019.34 1019.40 1019.25 1018.96 1018.58 1018.17 1017.79 1017.47 1017.23 1017.09 1017.03 1017.02 1017.05 1017.09 1017.13 1017.16 1017.18 1017.20 1017.22 1017.26 1017.31 1017.37 1017.43 1017.48 1017.51 1017.51 1017.49 1017.43 1017.36 1017.28 1017.19
1012.84 1013.08 1013.38 1013.75 1014.20 1014.76 1015.41 1016.13 1016.88 1017.61 1018.25 1018.76 1019.09 1019.23 1019.18 1018.97 1018.63 1018.24 1017.83 1017.47 1017.18 1016.98 1016.88 1016.85 1016.88 1016.93 1016.99 1017.05 1017.09 1017.11 1017.13 1017.14 1017.17 1017.20 1017.25 1017.30 1017.34 1017.37 1017.39 1017.37 1017.34 1017.28 1017.21 1017.13
1013.14 1013.44 1013.80 1014.24 1014.76 1015.35 1016.00 1016.68 1017.35 1017.97 1018.47 1018.83 1019.02 1019.03 1018.88 1018.58 1018.20 1017.79 1017.38 1017.04 1016.78 1016.61 1016.54 1016.55 1016.60 1016.68 1016.77 1016.84 1016.89 1016.92 1016.94 1016.96 1016.98 1017.02 1017.06 1017.11 1017.15 1017.19 1017.21 1017.20 1017.18 1017.13 1017.06 1016.98
1013.57 1013.90 1014.30 1014.78 1015.33 1015.92 1016.55 1017.17 1017.75 1018.24 1018.61 1018.83 1018.88 1018.77 1018.51 1018.15 1017.73 1017.30 1016.90 1016.57 1016.34 1016.20 1016.15 1016.17 1016.25 1016.34 1016.44 1016.52 1016.58 1016.63 1016.67 1016.70 1016.73 1016.78 1016.83 1016.88 1016.93 1016.97 1016.99 1016.98 1016.95 1016.89 1016.81 1016.72
1014.03 1014.37 1014.79 1015.28 1015.83 1016.40 1016.99 1017.54 1018.02 1018.40 1018.65 1018.74 1018.68 1018.47 1018.15 1017.74 1017.29 1016.85 1016.47 1016.15 1015.93 1015.81 1015.77 1015.80 1015.87 1015.96 1016.05 1016.14 1016.21 1016.26 1016.32 1016.36 1016.42 1016.48 1016.55 1016.62 1016.68 1016.72 1016.74 1016.72 1016.68 1016.59 1016.49 1016.36
1014.40 1014.75 1015.17 1015.66 1016.18 1016.73 1017.26 1017.74 1018.13 1018.42 1018.56 1018.57 1018.43 1018.16 1017.80 1017.38 1016.94 1016.52 1016.15 1015.86 1015.65 1015.52 1015.47 1015.48 1015.53 1015.59 1015.66 1015.73 1015.79 1015.85 1015.91 1015.98 1016.05 1016.14 1016.23 1016.32 1016.40 1016.45 1016.46 1016.43 1016.36 1016.25 1016.11 1015.95
1014.59 1014.94 1015.36 1015.83 1016.33 1016.83 1017.31 1017.73 1018.05 1018.27 1018.35 1018.30 1018.14 1017.86 1017.51 1017.11 1016.71 1016.33 1015.99 1015.72 1015.52 1015.39 1015.31 1015.28 1015.28 1015.29 1015.31 1015.34 1015.37 1015.41 1015.47 1015.55 1015.64 1015.75 1015.87 1015.98 1016.07 1016.12 1016.13 1016.10 1016.01 1015.88 1015.71 1015.51
1014.58 1014.93 1015.33 1015.78 1016.25 1016.71 1017.13 1017.50 1017.78 1017.95 1018.01 1017.96 1017.80 1017.56 1017.27 1016.93 1016.60 1016.28 1016.00 1015.76 1015.57 1015.42 1015.31 1015.22 1015.15 1015.09 1015.04 1015.00 1014.98 1014.99 1015.03 1015.10 1015.20 1015.32 1015.45 1015.58 1015.68 1015.74 1015.75 1015.70 1015.60 1015.45 1015.26 1015.05
1014.40 1014.73 1015.12 1015.54 1015.97 1016.39 1016.77 1017.10 1017.35 1017.51 1017.58 1017.55 1017.45 1017.28 1017.07 1016.83 1016.59 1016.36 1016.14 1015.95 1015.77 1015.61 1015.45 1015.30 1015.15 1015.00 1014.87 1014.75 1014.67 1014.62 1014.62 1014.67 1014.76 1014.87 1015.00 1015.12 1015.22 1015.27 1015.27 1015.22 1015.11 1014.95 1014.75 1014.54
1014.10 1014.42 1014.78 1015.17 1015.57 1015.95 1016.30 1016.60 1016.83 1017.00 1017.09 1017.12 1017.09 1017.01 1016.90 1016.78 1016.65 1016.51 1016.37 1016.22 1016.06 1015.89 1015.70 1015.49 1015.26 1015.03 1014.81 1014.61 1014.45 1014.34 1014.29 1014.29 1014.34 1014.42 1014.52 1014.61 1014.68 1014.71 1014.69 1014.61 1014.48 1014.31 1014.12 1013.92
1013.78 1014.08 1014.41 1014.77 1015.13 1015.48 1015.80 1016.08 1016.31 1016.49 1016.62 1016.70 1016.75 1016.77 1016.76 1016.75 1016.72 1016.67 1016.61 1016.51 1016.38 1016.21 1015.99 1015.73 1015.45 1015.15 1014.85 1014.58 1014.35 1014.17 1014.05 1013.99 1013.99 1014.01 1014.05 1014.08 1014.09 1014.06 1013.98 1013.86 1013.70 1013.52 1013.32 1013.13
1013.50 1013.78 1014.08 1014.41 1014.74 1015.06 1015.36 1015.63 1015.86 1016.05 1016.21 1016.34 1016.46 1016.55 1016.64 1016.72 1016.77 1016.81 1016.81 1016.76 1016.65 1016.49 1016.27 1015.99 1015.67 1015.32 1014.98 1014.65 1014.36 1014.12 1013.94 1013.81 1013.72 1013.66 1013.61 1013.55 1013.47 1013.35 1013.18 1012.99 1012.77 1012.54 1012.33 1012.14
Thickness
5805 5792 5786 5793 5799 5796 5793 5783 5779 5789 5802 5790 5779 5775 5778 5779 5774 5769 5764 5760 5758 5756 5758 5756 5751 5748 5746 5743 5741 5738 5735 5734 5732 5730 5726 5723 5721 5720 5719 5717 5715 5713 5711 5709
5794 5787 5800 5808 5805 5798 5791 5780 5781 5790 5795 5784 5775 5771 5777 5776 5769 5765 5760 5757 5754 5753 5751 5748 5745 5742 5740 5736 5734 5732 5730 5728 5726 5724 5722 5719 5717 5715 5714 5712 5710 5708 5707 5705
5783 5794 5808 5801 5794 5787 5786 5779 5777 5775 5783 5784 5771 5760 5764 5767 5766 5762 5758 5753 5751 5747 5742 5741 5738 5735 5734 5731 5730 5729 5724 5722 5720 5718 5716 5714 5711 5709 5707 5705 5704 5703 5702 5700
5791 5801 5799 5791 5786 5782 5772 5787 5782 5776 5768 5761 5766 5738 5748 5755 5749 5747 5746 5744 5743 5742 5739 5735 5733 5731 5729 5727 5725 5722 5719 5716 5714 5713 5710 5707 5704 5701 5701 5700 5699 5699 5698 5696
5783 5793 5788 5779 5782 5782 5778 5790 5783 5778 5769 5762 5764 5744 5735 5745 5734 5735 5738 5738 5736 5736 5733 5730 5729 5726 5724 5722 5720 5717 5714 5711 5710 5708 5705 5702 5700 5699 5698 5696 5694 5694 5693 5691
5789 5799 5793 5784 5790 5790 5787 5783 5781 5778 5768 5741 5748 5740 5721 5724 5725 5729 5732 5733 5730 5730 5728 5725 5724 5722 5719 5717 5714 5712 5708 5706 5705 5703 5701 5698 5695 5694 5692 5690 5689 5689 5688 5687
5775 5786 5791 5789 5776 5781 5778 5762 5748 5741 5737 5734 5750 5737 5715 5725 5730 5729 5727 5726 5726 5724 5721 5719 5717 5715 5713 5711 5709 5708 5704 5700 5700 5699 5696 5694 5692 5690 5688 5687 5685 5684 5683 5682
5758 5759 5776 5779 5770 5761 5764 5756 5731 5716 5718 5727 5739 5722 5718 5729 5730 5730 5727 5723 5720 5717 5716 5714 5712 5710 5708 5707 5706 5704 5700 5698 5696 5694 5692 5690 5688 5686 5685 5684 5683 5681 5680 5679
5748 5751 5776 5779 5778 5769 5755 5753 5758 5739 5732 5723 5725 5717 5717 5723 5721 5722 5720 5717 5713 5711 5711 5709 5707 5706 5705 5703 5702 5700 5697 5694 5692 5690 5688 5686 5683 5682 5681 5680 5679 5678 5676 5676
5755 5743 5761 5774 5775 5771 5764 5757 5746 5730 5711 5702 5711 5704 5698 5704 5706 5711 5711 5709 5709 5708 5707 5706 5704 5702 5701 5700 5699 5697 5695 5691 5689 5687 5684 5682 5680 5679 5678 5677 5675 5674 5672 5672
5756 5739 5747 5758 5751 5747 5750 5745 5737 5730 5721 5699 5690 5690 5705 5704 5704 5704 5706 5707 5705 5703 5701 5701 5701 5700 5698 5696 5695 5692 5690 5688 5685 5683 5681 5679 5677 5676 5675 5673 5671 5670 5669 5668
5752 5740 5730 5742 5759 5762 5750 5739 5731 5711 5706 5708 5695 5688 5711 5706 5707 5706 5705 5705 5703 5701 5699 5699 5698 5695 5692 5691 5690 5689 5687 5685 5683 5682 5679 5676 5674 5672 5671 5669 5668 5667 5666 5665
5742 5730 5717 5726 5737 5747 5739 5738 5734 5725 5714 5702 5689 5689 5711 5707 5705 5705 5702 5701 5700 5698 5696 5695 5693 5690 5688 5687 5685 5684 5683 5682 5681 5679 5676 5673 5670 5669 5667 5666 5666 5665 5664 5662
5741 5727 5715 5706 5714 5727 5728 5730 5731 5721 5706 5698 5697 5697 5703 5702 5701 5699 5698 5697 5696 5694 5691 5689 5687 5685 5684 5683 5682 5681 5680 5679 5678 5676 5673 5669 5667 5666 5665 5664 5663 5662 5661 5659
5738 5721 5722 5724 5730 5732 5728 5726 5725 5718 5712 5701 5699 5698 5697 5698 5698 5697 5696 5694 5692 5689 5687 5685 5682 5681 5680 5679 5678 5677 5677 5676 5675 5673 5670 5667 5666 5665 5664 5662 5661 5660 5658 5656
5733 5717 5717 5717 5727 5728 5723 5723 5722 5717 5714 5707 5701 5696 5700 5699 5698 5695 5693 5690 5687 5686 5684 5682 5679 5677 5676 5675 5674 5674 5673 5674 5673 5670 5668 5666 5664 5663 5662 5660 5658 5656 5654 5652
5726 5714 5708 5708 5722 5720 5707 5717 5716 5712 5712 5704 5693 5693 5698 5694 5691 5689 5688 5687 5684 5683 5682 5679 5676 5674 5673 5672 5672 5670 5671 5671 5670 5668 5666 5664 5662 5660 5659 5658 5655 5652 5649 5646
5719 5711 5707 5708 5707 5688 5706 5727 5721 5711 5707 5705 5700 5697 5696 5691 5691 5690 5688 5684 5682 5682 5679 5677 5675 5673 5672 5672 5671 5670 5669 5668 5666 5665 5663 5662 5659 5657 5656 5654 5650 5648 5645 5642
5726 5711 5704 5701 5695 5699 5709 5717 5715 5704 5696 5700 5696 5693 5693 5694 5691 5687 5687 5685 5682 5681 5678 5676 5676 5674 5672 5670 5669 5668 5666 5665 5663 5661 5659 5658 5657 5654 5652 5649 5647 5644 5641 5639
5725 5716 5702 5698 5687 5684 5697 5712 5719 5706 5687 5694 5693 5687 5686 5685 5675 5676 5683 5682 5680 5680 5678 5676 5676 5673 5670 5669 5668 5665 5663 5662 5660 5659 5658 5656 5655 5652 5649 5646 5643 5641 5638 5636
5707 5705 5699 5694 5688 5690 5701 5710 5710 5683 5675 5689 5689 5685 5682 5676 5673 5677 5680 5679 5678 5677 5676 5675 5673 5670 5669 5668 5666 5662 5660 5659 5659 5658 5657 5655 5653 5650 5647 5644 5641 5638 5636 5634
5703 5698 5695 5693 5683 5680 5701 5700 5687 5680 5688 5688 5686 5684 5680 5677 5678 5677 5677 5675 5675 5674 5674 5672 5670 5668 5668 5667 5664 5660 5658 5659 5658 5657 5654 5652 5650 5648 5646 5642 5639 5636 5633 5631
5706 5701 5697 5691 5687 5693 5698 5692 5691 5691 5685 5685 5684 5682 5679 5675 5674 5674 5673 5672 5671 5671 5670 5669 5667 5665 5665 5665 5662 5658 5658 5657 5656 5654 5651 5649 5647 5645 5643 5640 5636 5634 5631 5629
5705 5707 5697 5690 5692 5695 5695 5693 5690 5688 5684 5684 5683 5680 5677 5673 5672 5671 5669 5668 5668 5668 5667 5666 5664 5662 5661 5662 5661 5659 5658 5656 5653 5650 5648 5647 5645 5643 5641 5639 5636 5632 5629 5626
5695 5693 5689 5685 5688 5690 5689 5686 5684 5683 5682 5680 5679 5678 5674 5671 5669 5667 5665 5665 5664 5665 5664 5664 5661 5659 5659 5660 5659 5658 5657 5655 5652 5649 5647 5645 5644 5642 5639 5636 5632 5629 5625 5622
5693 5687 5679 5676 5681 5677 5676 5680 5681 5677 5675 5674 5673 5672 5672 5669 5665 5664 5662 5662 5661 5661 5661 5660 5659 5658 5658 5658 5657 5657 5656 5653 5650 5647 5644 5644 5643 5641 5639 5635 5631 5626 5622 5618